Location: Newark
(45.5167°N, 11.1667°E)
Time: 08:18:00
(UTC+00:00)

Transit 4A - Visible Passes

Search period start: 15 December 2019 00:00
Search period end: 25 December 2019 00:00
Orbit: 870 x 974 km, 66.8° (Epoch: 14 December)

Date Brightness Start Highest point End Pass type
(mag) Time Alt. Az. Time Alt. Az. Time Alt. Az.
15 Dec 9.9 17:29:21 10° WNW 17:33:23 18° NNW 17:37:23 10° N visible
16 Dec 10.0 17:40:00 10° WNW 17:43:13 14° NNW 17:46:24 10° N visible
17 Dec 9.1 15:59:16 10° WSW 16:04:51 35° NW 16:10:18 10° NNE visible
17 Dec 10.1 17:50:54 10° NW 17:53:07 12° NNW 17:55:18 10° N visible
18 Dec 9.5 16:09:22 10° W 16:14:27 27° NW 16:19:27 10° NNE visible
18 Dec 10.2 18:02:28 10° NNW 18:03:05 10° NNW 18:03:41 10° N visible
19 Dec 9.7 16:19:40 10° W 16:24:08 21° NW 16:28:33 10° NNE visible
20 Dec 9.9 16:30:11 10° WNW 16:33:55 16° NNW 16:37:37 10° N visible
21 Dec 10.0 16:40:56 10° NW 16:43:47 13° NNW 16:46:36 10° N visible
22 Dec 10.0 16:51:59 10° NW 16:53:42 11° NNW 16:55:25 10° N visible
